Regional Weather Roundup
Issued by NWS Northern Indiana

Home | Current Version | Previous Version | Text Only | Print | Product List | Glossary Off
Versions: 1 2 3 4 5 6 7 8 9 10 11 12 13 14 15 16 17 18 19 20 21 22 23 24 25 26 27 28 29 30 31 32 33 34 35 36 37 38 39 40 41 42 43 44 45 46 47 48 49 50

000
ASUS43 KIWX 221600
RWRIWX

KIWX WEATHER ROUNDUP
NATIONAL WEATHER SERVICE NORTHERN INDIANA
1100 AM EST MON JAN 22 2018

NOTE: "FAIR" INDICATES FEW OR NO CLOUDS BELOW 12,000 FEET WITH NO
SIGNIFICANT WEATHER AND/OR OBSTRUCTIONS TO VISIBILITY.

* THESE STATIONS ARE NOT UNDER NWS QUALITY CONTROL. THEY ALSO MAY NOT
  REPORT WEATHER SUCH AS PRECIPITATION OR FOG.

INZ001>027-221700-
NORTHERN INDIANA

CITY           SKY/WX    TMP DP  RH WIND       PRES   REMARKS
GARY*          CLOUDY    54  48  82 S14       29.61S
VALPARAISO     FAIR      52  48  86 S18G29    29.64F
KNOX*          PTSUNNY   50  46  87 S18G31    29.66F
SOUTH BEND     CLOUDY    50  47  89 S17G29    29.68S FOG
ELKHART*       CLOUDY    48  46  93 S13G21    29.69S
GOSHEN         LGT RAIN  50  47  89 S21G32    29.69F
MONTICELLO*    CLOUDY    52  48  87 S16G29    29.68S
FORT WAYNE     LGT RAIN  52  48  86 S18G28    29.77F FOG

$$
INZ028>050-221700-
CENTRAL INDIANA

CITY           SKY/WX    TMP DP  RH WIND       PRES   REMARKS
LAFAYETTE      CLOUDY    52  49  89 S14G24    29.69F
MUNCIE*        LGT RAIN  53  47  79 S17G26    29.80F
INDIANAPOLIS   LGT RAIN  52  49  89 S24G32    29.77F

$$
MIZ043>046-050>051-056>058-064>065-071>073-077>080-221700-
SOUTHWEST LOWER MICHIGAN

CITY           SKY/WX    TMP DP  RH WIND       PRES   REMARKS
BATTLE CREEK   LGT RAIN  49  46  90 S10       29.70F
BENTON HARBOR  CLOUDY    51  47  86 S12G23    29.65S
COLDWATER*     LGT RAIN  49  49 100 S9G16     29.72F
HILLSDALE*     CLOUDY    46  45  93 S9G16     29.74F
HOLLAND        LGT RAIN  40  39  97 E16       29.68S
GRAND RAPIDS   RAIN      38  38 100 E15       29.71F FOG
KALAMAZOO      LGT RAIN  50  47  89 S12G20    29.68F FOG
THREE RIVERS*  RAIN      50  49  98 S15G24    29.70S

$$
OHZ001>008-015>018-024>025-221700-
NORTHWEST OHIO

CITY           SKY/WX    TMP DP  RH WIND       PRES   REMARKS
DEFIANCE       FAIR      53  43  68 S16G25    29.79R
FINDLAY        CLOUDY    54  44  69 S16       29.83R
TOLEDO EXPRESS PTSUNNY   52  47  83 S9G18     29.81R
TOLEDO METCALF FAIR      54  46  74 S16       29.82F
LIMA           CLOUDY    54  46  74 S14       29.84R

$$
AND FOR LAKE MICHIGAN COASTAL AND OPEN LAKE BUOY OBSERVATIONS

STATION/POSITION TEMP    WIND        PRES    VSBY  WAVE
                 AIR SEA DIR/SP/G                  HT/PER
                 (F)     (DEG/KT/KT) (MB)    (MI)  (FT/S)
CALUMET HARBOR    51     170/ 15/ 28 1001.8S
MICHIGAN CITY     51     170/ 20/ 26   N/A
BURNS HARBOR      51     190/ 19/ 26 1003.7R
SAINT JOSEPH      49     180/  3/ 11 1005.1

$$
&&




USA.gov is the U.S. government's official web portal to all federal, state and local government web resources and services.